Theta_e
293 293 292 293 293 294 295 296 297 298 300 302 304 304 305 305 304 303 304 304 303 302 302 303 302 302 303 301 298 297 296 296 296 296 298 298 300 301 302 303 303 303 303 303 301 299 299 299 295 295 295 295 295 294 295 296 298 298 296 295 293 291 291 291 290 288 286 284 284 284 284 284 286 283 282 282 281 280 280 280 281 281 281 280 280
291 290 291 290 292 293 294 296 297 298 299 302 304 304 304 304 304 304 302 303 303 303 303 303 303 303 302 298 297 297 297 297 295 295 295 295 297 298 299 299 300 301 300 300 298 297 296 296 294 293 293 292 291 292 293 295 295 295 293 291 290 290 287 287 288 288 286 283 283 281 282 283 285 283 282 282 281 281 280 280 280 280 280 280 280
290 291 290 291 291 292 294 295 297 299 299 301 304 304 304 303 304 304 303 303 303 303 303 302 299 298 298 297 296 292 292 292 293 292 293 293 293 293 295 296 297 297 298 297 296 295 294 293 292 292 291 291 291 291 292 293 293 293 292 291 287 284 284 284 283 284 284 282 282 281 280 279 283 281 280 281 281 280 280 280 281 280 279 279 280
292 291 291 290 291 292 293 294 296 298 299 300 302 304 304 303 303 303 302 303 303 303 301 297 295 294 293 293 292 292 291 291 291 292 293 293 291 291 291 293 295 294 295 295 294 293 292 291 290 290 289 290 291 289 289 289 289 290 290 290 290 287 281 282 284 283 284 286 285 283 280 278 278 280 279 281 279 279 280 279 280 279 278 279 279
293 291 290 290 290 292 293 295 295 297 299 300 301 303 304 303 303 303 302 302 302 299 296 295 294 293 292 292 292 292 292 291 291 290 290 290 290 290 289 291 293 293 292 292 292 291 290 290 289 287 286 286 288 289 288 288 288 289 290 290 291 290 282 280 283 283 281 282 285 279 280 282 279 279 276 281 278 279 278 278 281 278 278 279 278
293 293 291 291 292 292 292 293 295 297 299 301 302 302 303 303 303 303 302 302 299 297 296 295 294 293 293 293 293 292 291 291 292 291 289 291 289 287 288 289 290 290 291 291 290 290 288 287 286 285 284 285 286 287 285 284 285 287 289 290 287 287 287 282 281 282 282 282 280 280 282 283 278 278 277 278 278 278 277 278 277 277 276 277 278
291 291 291 290 291 291 292 293 295 296 299 301 302 302 302 302 303 302 302 300 298 296 296 296 295 295 296 297 296 295 293 291 290 290 289 287 287 287 287 288 289 289 289 289 289 288 286 285 284 284 284 284 284 285 285 285 285 285 284 287 287 286 286 284 282 281 280 281 280 279 280 278 278 279 279 277 277 277 275 277 276 277 276 276 278
292 291 291 291 291 292 292 293 294 296 298 300 302 303 303 302 302 302 301 298 296 296 296 296 295 296 297 297 296 296 295 292 289 288 286 287 286 286 286 286 286 287 287 287 287 286 285 284 284 283 283 283 284 285 284 283 284 284 284 284 285 286 286 285 282 279 281 280 281 279 279 278 277 277 276 279 277 275 277 275 275 276 276 276 277
291 292 291 291 291 292 293 293 294 295 298 300 302 303 303 303 302 301 299 297 296 296 296 296 296 296 298 297 295 294 292 290 288 287 286 286 285 285 285 285 285 285 285 285 284 284 284 284 283 283 283 283 284 283 283 283 284 283 283 283 283 282 283 283 282 279 281 279 278 278 278 277 276 277 276 276 275 275 274 275 274 276 275 275 276
289 291 291 291 291 292 292 291 293 295 298 300 302 302 302 301 301 299 297 296 296 295 296 295 296 296 296 296 294 289 288 286 287 286 285 285 285 284 284 284 284 284 283 282 282 282 283 283 283 282 282 283 283 283 282 282 282 283 282 282 282 281 280 281 281 279 280 279 278 279 277 276 277 277 276 275 275 275 277 274 275 274 274 274 276
287 288 288 289 289 290 290 292 293 294 296 299 301 301 300 300 299 298 297 296 295 295 295 295 295 295 296 295 293 289 286 286 285 284 284 284 284 283 284 284 283 282 281 281 281 281 281 282 282 281 282 283 282 282 282 282 282 281 281 281 281 281 280 281 281 279 279 279 278 278 278 277 277 276 276 276 273 273 273 274 274 275 274 274 274
287 286 287 287 288 288 289 291 292 293 294 298 299 300 299 299 298 297 295 295 295 294 294 295 295 294 294 294 291 288 286 286 286 284 284 284 284 283 282 282 282 281 280 280 280 280 281 281 281 281 281 281 281 281 281 281 281 281 281 281 280 280 280 280 279 279 279 279 278 278 278 277 277 276 276 276 275 274 274 273 274 274 274 274 276
286 286 286 287 288 289 289 290 291 292 294 297 298 298 298 298 297 296 294 294 294 294 294 294 294 294 293 292 291 288 288 288 287 285 285 284 283 282 281 282 281 280 280 281 280 280 281 280 280 281 281 281 281 281 281 281 281 281 280 280 280 280 280 280 280 279 279 280 279 278 278 278 277 277 277 276 275 275 274 273 274 274 274 273 274
287 287 287 287 288 289 289 290 291 292 293 296 297 297 297 298 297 297 295 294 294 294 294 293 293 293 292 291 290 289 288 288 288 286 285 284 283 282 283 282 281 281 281 281 281 280 280 281 281 281 280 281 281 281 281 281 281 281 280 280 279 279 279 279 279 278 278 279 278 278 277 277 277 277 276 276 277 276 275 273 273 273 273 273 273
286 287 287 288 288 289 290 290 291 292 293 294 296 297 297 297 296 296 295 293 293 293 293 293 292 291 290 290 289 289 289 288 287 287 285 283 282 282 282 282 282 281 281 281 280 280 280 280 280 280 280 280 280 280 281 280 280 280 280 279 278 278 278 278 278 278 279 278 277 278 278 277 276 277 276 277 276 276 275 275 274 274 271 273 272
285 286 287 287 288 288 289 290 291 291 292 294 295 297 297 297 296 296 296 293 292 292 292 292 291 290 288 289 288 288 288 287 286 285 284 283 282 282 282 281 282 281 280 280 280 280 280 279 280 280 280 280 280 280 280 279 279 279 278 278 278 279 278 278 278 278 277 277 277 277 277 277 277 277 276 276 276 276 276 275 274 273 272 269 271
285 286 287 286 286 288 289 290 290 291 291 293 295 296 297 296 296 295 295 293 292 291 291 291 290 288 288 288 288 287 286 286 285 283 282 281 282 282 281 281 280 280 280 280 280 279 279 280 280 280 280 279 279 279 279 279 279 279 278 278 277 277 278 278 277 277 276 277 276 276 277 277 276 276 277 277 277 276 276 275 275 275 273 270 267
287 286 285 286 287 288 288 289 290 291 291 292 294 295 296 296 295 294 294 292 291 291 290 289 288 287 287 287 287 287 286 286 285 283 281 281 280 280 280 279 279 280 280 281 280 279 279 280 279 279 279 279 279 279 279 278 278 278 277 277 277 277 277 277 277 277 276 276 277 276 277 277 276 276 276 276 276 276 276 276 275 275 274 273 271
285 286 285 286 286 287 288 289 289 290 291 291 292 293 294 294 294 294 293 292 291 291 290 289 287 287 287 287 286 286 286 285 284 283 281 280 280 279 279 279 279 280 280 280 279 279 279 278 278 278 278 278 278 278 278 278 278 277 277 277 277 277 277 277 276 277 277 277 276 276 276 276 276 275 275 275 275 275 275 275 275 275 276 274 273
286 286 286 286 286 287 288 288 289 289 289 290 290 291 292 293 293 293 292 291 290 289 288 287 286 286 285 284 284 284 284 284 283 281 280 280 280 279 279 278 279 280 280 279 279 279 278 278 278 278 278 277 277 277 277 277 277 277 277 277 276 277 277 276 276 276 277 276 276 276 276 276 275 275 274 275 274 275 274 275 275 275 275 274 274
286 286 286 286 286 286 286 287 288 287 287 288 289 290 291 291 291 292 292 290 290 289 288 288 286 285 284 283 283 282 282 282 281 280 280 280 279 279 279 279 279 279 279 279 279 279 278 278 277 278 277 277 277 277 277 277 277 277 276 277 276 276 276 276 276 276 276 275 275 275 275 274 274 274 274 274 274 274 274 274 274 274 274 274 274
285 286 286 286 285 285 285 285 285 286 287 287 288 288 289 289 290 290 290 289 289 288 288 287 286 285 284 283 282 282 281 280 280 279 279 279 279 279 279 279 279 279 279 279 279 278 277 277 277 277 277 277 277 277 276 277 277 276 276 277 276 276 276 276 277 276 275 275 275 274 273 273 274 274 274 274 273 273 273 273 273 273 273 273 274
286 285 286 285 285 285 286 286 286 287 287 287 287 288 288 288 288 289 289 289 289 288 288 287 286 285 284 283 282 281 280 279 279 279 279 278 278 278 278 279 279 279 279 279 278 278 277 277 277 278 277 277 277 277 276 276 277 277 277 277 277 277 276 276 276 276 275 274 273 273 273 273 273 272 273 273 273 273 273 273 273 273 272 272 273
284 283 283 284 284 284 284 285 285 286 286 286 287 287 287 288 288 288 288 288 288 288 287 286 285 285 284 282 282 281 279 279 279 279 279 278 278 278 278 279 279 278 278 278 277 278 277 278 278 277 277 276 276 276 276 277 277 278 278 278 277 276 276 277 277 276 275 274 274 273 273 273 273 272 272 271 271 271 272 272 272 272 272 272 272
283 283 283 282 283 284 285 285 286 286 286 286 287 287 287 287 287 287 287 287 287 287 287 286 285 284 283 282 281 280 280 279 279 278 278 278 278 278 278 278 278 277 277 277 277 278 278 278 278 277 277 277 277 277 277 277 278 278 278 278 277 277 276 276 276 276 277 275 274 274 273 272 272 272 271 271 271 270 271 271 271 271 271 271 271
283 282 282 284 284 285 285 285 285 286 286 286 286 287 287 287 287 287 287 285 286 285 286 286 285 284 283 282 281 280 280 279 278 278 278 278 278 278 278 278 278 278 277 277 277 277 278 278 278 278 278 278 278 278 278 277 277 277 277 277 277 277 276 276 275 276 276 275 274 273 273 272 272 272 272 271 270 271 270 270 270 270 270 270 271
284 284 284 283 284 284 285 285 285 285 286 286 286 287 287 287 287 286 286 286 285 285 285 286 285 284 283 282 282 281 280 279 279 279 279 278 278 278 278 278 278 278 277 277 278 278 278 278 278 278 278 278 278 278 278 277 277 277 277 277 276 276 275 275 275 275 275 274 274 273 272 272 272 273 272 271 271 270 271 270 271 270 270 270 270
283 283 284 284 285 285 285 285 285 285 285 286 286 287 287 287 287 286 286 285 285 284 284 285 285 284 284 283 282 282 281 280 279 279 279 279 279 279 279 279 278 278 278 278 278 278 278 278 278 278 279 279 278 278 278 277 277 277 276 276 276 276 275 275 274 274 275 274 274 274 273 273 273 273 272 272 271 271 271 270 270 270 270 269 269
284 285 285 285 285 285 285 285 285 285 285 285 285 286 286 286 287 286 285 285 285 284 284 284 284 285 284 284 282 282 281 280 280 279 279 279 279 279 279 278 278 278 279 278 278 279 278 278 278 278 278 278 278 278 278 277 277 276 276 276 276 276 275 275 274 274 274 274 274 273 273 273 273 275 277 276 275 275 271 270 270 270 269 269 268
290 288 287 287 286 285 285 285 284 285 285 285 285 285 286 286 286 286 285 285 284 284 284 284 284 284 285 284 283 282 281 280 279 279 279 279 279 279 279 279 279 279 279 278 278 278 278 278 278 278 278 278 278 278 280 281 280 277 276 276 276 275 275 275 275 274 274 274 273 273 274 276 277 278 278 279 279 279 278 274 271 270 269 269 266
292 291 289 288 286 285 285 285 285 285 285 285 286 286 286 286 286 285 285 284 284 284 284 284 284 284 284 283 283 282 281 280 280 280 279 279 279 279 279 279 279 279 278 278 278 278 278 278 278 278 278 278 278 278 281 283 283 282 277 276 276 276 275 275 275 274 274 274 273 274 273 276 277 278 278 280 281 281 281 280 279 277 275 270 267
293 292 291 288 286 286 285 286 286 286 285 285 285 285 285 285 286 285 285 284 284 284 284 284 283 283 283 283 283 282 281 281 280 280 280 279 279 279 279 279 279 278 278 278 278 278 278 278 278 278 278 278 278 281 283 284 284 284 281 277 276 276 276 275 274 274 274 274 274 274 274 274 274 275 275 276 279 281 282 282 281 281 279 279 277
293 292 292 290 289 288 287 287 287 286 286 286 286 285 285 285 285 285 284 283 283 283 283 283 282 282 282 282 282 282 282 281 281 281 280 280 279 279 279 279 278 279 278 278 278 278 278 278 278 278 277 278 277 281 283 284 285 285 284 280 276 276 276 275 274 274 274 274 274 274 273 273 273 276 276 275 274 275 280 282 282 283 282 282 281
292 291 291 291 290 289 288 288 288 287 287 286 285 285 285 285 285 284 283 283 283 282 283 282 281 281 281 281 282 282 282 281 281 281 280 279 279 279 279 279 279 279 278 278 278 278 278 278 278 278 277 277 277 281 283 284 285 285 286 283 276 276 276 275 274 274 274 274 274 274 273 273 273 273 274 274 274 273 272 273 275 276 276 278 282
291 290 290 290 290 289 288 287 287 285 284 284 284 284 284 284 284 283 283 282 282 282 282 282 281 281 280 281 282 282 282 281 281 280 280 279 279 279 279 279 279 279 278 278 278 278 278 278 278 278 277 277 277 282 283 285 285 286 286 286 278 276 275 275 274 274 274 274 274 274 273 273 273 272 273 274 273 272 271 270 270 270 272 272 272
291 290 290 289 289 289 289 288 284 284 284 284 284 284 283 283 283 283 282 282 282 281 281 281 281 280 280 281 282 282 282 281 280 280 279 279 279 279 279 279 279 279 278 278 278 278 278 278 278 277 277 277 277 282 283 284 285 286 286 284 279 276 275 274 274 274 274 274 274 273 273 273 273 272 274 278 277 273 270 268 267 268 268 269 269
288 287 288 287 287 287 287 284 283 284 283 283 283 283 283 282 282 281 281 281 281 281 281 281 280 280 281 281 282 282 281 281 280 280 279 279 279 279 279 279 278 279 278 278 278 278 278 278 278 277 277 277 277 281 283 284 285 286 286 283 280 277 275 274 274 274 274 274 273 273 273 273 272 272 275 278 280 279 270 268 267 267 267 266 267
285 285 284 283 283 284 284 283 282 282 282 282 282 282 282 281 281 280 280 280 280 280 280 280 280 280 281 281 281 281 281 280 280 279 279 279 279 278 277 277 278 278 278 278 278 278 278 278 278 277 277 277 278 279 283 284 284 285 285 282 280 277 276 275 275 274 273 273 273 275 274 273 272 272 276 278 279 279 273 270 268 267 266 266 267
281 282 283 282 281 281 281 282 282 281 281 281 282 282 281 280 280 279 280 279 280 280 280 280 280 280 280 280 280 280 280 280 279 279 278 278 278 278 278 278 279 279 278 278 278 278 277 277 277 278 279 278 277 278 281 283 284 285 284 282 280 277 277 276 275 275 274 273 272 274 276 275 274 274 277 278 279 278 275 273 271 268 268 268 270
280 280 280 280 281 281 281 281 281 280 280 281 281 281 280 280 279 279 279 279 280 280 279 280 279 280 280 280 281 281 280 280 280 279 279 279 279 279 278 278 278 278 278 278 277 277 277 277 276 276 276 277 276 275 277 282 283 284 285 283 280 278 277 277 277 276 275 274 273 272 274 278 280 280 280 280 280 280 277 274 273 270 270 270 270
280 281 282 281 281 281 280 279 279 280 280 281 281 281 280 279 279 279 279 279 279 279 280 280 279 279 280 280 280 281 281 280 280 279 280 279 279 279 279 278 278 277 277 276 276 276 276 276 275 274 274 274 274 274 275 280 281 283 284 284 281 279 279 278 277 276 275 274 273 272 271 275 278 280 281 282 282 282 281 278 275 272 272 274 272
280 280 281 281 280 280 279 279 279 280 280 281 281 280 279 279 279 278 277 279 280 280 280 280 280 280 280 280 280 281 281 281 281 280 279 279 279 279 279 278 278 277 276 276 276 275 275 275 274 273 273 273 274 276 273 277 280 281 283 284 282 280 279 277 276 275 274 273 273 272 271 274 277 279 280 281 282 282 283 280 279 281 281 280 277
281 281 280 281 280 279 279 279 279 279 280 281 281 279 279 279 279 278 279 280 281 281 281 281 280 280 280 280 281 281 281 281 280 280 280 279 278 278 278 277 277 276 276 275 275 274 273 273 273 273 272 272 271 271 276 273 277 279 281 282 283 282 283 278 275 275 276 276 274 272 272 276 278 279 280 280 281 282 281 280 283 283 283 283 281
279 280 280 280 280 279 279 278 278 279 279 281 281 280 279 279 278 279 279 280 280 280 281 281 281 280 280 280 280 280 280 280 280 280 279 278 277 277 276 276 276 275 275 274 274 273 273 272 273 273 272 271 270 269 273 276 275 277 278 280 281 282 283 279 276 276 277 276 275 273 272 277 278 279 280 281 281 281 280 281 282 282 282 282 280
280 279 278 279 280 279 279 278 278 278 278 279 279 280 280 280 280 281 281 281 281 281 281 281 280 280 280 280 279 279 279 279 279 279 278 277 276 276 275 274 275 275 274 274 273 273 272 272 272 272 272 270 269 268 267 271 276 276 278 279 280 280 281 281 279 278 277 275 278 280 280 280 280 280 281 281 281 281 282 281 282 281 280 279 278
277 278 278 279 279 279 279 279 278 278 279 278 279 281 281 279 279 280 280 280 281 281 281 280 280 279 279 278 278 278 278 278 278 279 278 278 277 276 276 274 274 274 274 274 273 272 272 271 271 270 270 268 265 265 266 265 270 274 276 278 279 279 279 280 280 278 280 281 281 282 282 282 281 281 280 278 277 277 279 280 280 280 278 277 277
278 278 279 279 279 279 278 278 277 275 276 276 277 277 278 278 278 279 280 280 280 280 279 279 278 278 277 278 278 277 277 276 277 277 277 277 276 276 275 274 273 273 272 272 271 271 270 269 269 268 266 265 263 262 263 263 263 265 267 269 271 271 275 276 275 274 275 274 275 275 275 277 278 279 280 280 280 279 277 277 277 276 276 276 275
276 277 278 278 279 278 277 276 275 274 273 272 272 273 274 276 277 278 279 280 279 279 278 277 276 276 275 276 276 272 274 275 274 275 275 274 273 274 274 274 273 272 272 270 269 269 269 270 269 268 266 264 265 264 263 264 264 263 263 263 263 263 263 263 265 267 267 269 270 272 272 270 271 273 274 275 276 276 276 275 274 274 274 274 274
278 276 277 279 278 277 276 275 274 272 271 270 269 268 268 270 272 273 278 278 276 275 274 274 273 274 273 272 273 273 273 273 271 267 266 267 270 270 271 267 266 268 271 271 270 269 269 267 268 267 266 266 265 265 267 271 267 270 266 262 261 263 263 263 267 272 270 268 267 267 267 268 269 271 272 273 274 274 274 274 273 272 272 271 270
278 279 279 279 278 277 275 274 273 272 270 268 267 265 265 264 265 267 272 273 272 272 271 269 269 270 269 270 269 268 268 269 269 268 269 270 272 275 271 268 266 273 276 277 276 268 266 265 265 265 266 267 265 265 274 276 276 276 276 276 273 273 273 270 272 276 275 270 269 268 268 268 269 269 270 271 271 272 272 271 271 271 270 268 267
278 278 278 277 276 275 273 271 269 268 266 265 264 262 262 262 263 264 270 272 272 271 270 269 269 268 268 268 267 266 265 266 267 268 268 268 267 271 277 277 276 276 277 278 278 278 277 274 268 260 265 275 275 276 277 277 278 278 278 278 278 278 278 278 278 276 274 273 271 270 270 270 270 270 269 269 269 269 270 270 270 269 268 267 268
Wind_Speed
2 5 6 8 8 7 7 7 7 6 7 7 7 7 7 7 7 7 6 7 6 7 6 7 7 5 2 4 7 3 3 3 4 2 4 4 5 7 5 4 4 7 5 8 8 7 7 6 6 7 5 6 7 7 7 7 7 10 9 9 14 11 7 5 4 5 11 6 6 5 6 4 4 5 6 6 6 5 5 6 5 7 7 7 5
3 4 4 4 6 7 6 7 7 10 9 8 10 9 8 7 8 7 6 7 6 8 7 6 3 4 6 5 5 4 4 4 4 2 3 5 5 6 5 3 3 6 5 7 8 8 8 6 5 7 7 7 7 7 7 8 10 10 11 7 3 11 6 1 0 3 4 6 7 3 3 3 3 5 6 6 5 6 5 6 6 7 7 5 5
6 8 5 6 7 8 8 8 9 9 9 10 8 9 9 8 8 8 7 8 7 7 6 5 3 2 4 6 6 5 3 3 4 3 2 5 6 5 4 3 3 5 4 6 7 6 7 7 6 6 7 9 9 8 8 8 9 10 10 12 8 4 5 2 2 1 5 4 3 6 1 2 1 2 2 4 5 4 4 6 5 6 6 4 4
12 10 10 7 8 7 7 9 10 9 9 9 10 11 9 8 8 9 8 7 8 6 6 6 7 7 8 7 6 3 4 5 4 4 4 6 7 5 4 2 4 4 4 6 6 6 6 8 7 7 7 6 9 9 8 9 7 7 7 10 12 10 3 2 3 1 4 8 3 1 3 3 1 1 0 1 0 2 6 5 4 4 4 4 6
12 7 7 8 10 13 15 11 7 10 10 11 11 11 9 10 9 9 8 8 7 7 7 6 8 8 6 7 7 8 6 5 5 5 4 5 5 4 3 2 4 4 4 5 6 7 6 7 8 7 7 5 7 9 8 9 7 7 10 10 10 12 5 3 4 4 3 1 6 4 2 0 2 2 1 1 2 1 4 4 4 5 5 5 6
10 11 12 13 14 10 8 9 12 11 12 11 10 10 8 9 9 9 8 7 7 9 10 9 7 8 7 8 7 4 5 5 6 8 6 6 5 3 3 2 3 4 4 5 6 7 8 7 8 8 7 6 6 8 8 7 7 8 7 9 7 4 10 6 4 3 4 5 3 1 2 2 5 2 2 1 1 1 1 1 2 3 3 4 4
7 7 6 9 11 10 11 11 13 12 12 8 8 8 8 9 9 9 9 7 7 9 9 8 10 8 11 10 10 10 10 4 2 3 6 5 5 5 4 2 2 5 5 5 6 6 7 7 7 7 7 7 6 8 8 8 7 7 5 6 8 8 8 8 9 5 3 5 4 4 6 3 4 5 2 2 1 1 1 1 2 4 2 4 4
7 9 9 10 10 13 16 15 12 11 7 7 7 8 10 10 10 10 8 8 7 8 9 9 10 9 7 6 6 8 10 10 8 6 5 7 7 6 4 2 3 3 5 6 5 6 7 7 7 7 8 6 7 7 9 7 6 4 5 6 7 7 9 11 8 7 7 2 1 4 6 6 5 6 3 2 3 1 0 2 1 5 4 4 3
8 8 10 11 12 13 11 10 9 7 8 10 10 10 8 8 9 9 8 8 8 10 10 9 8 9 9 7 6 1 3 5 6 5 7 7 7 5 5 3 3 4 3 5 4 5 6 8 7 8 8 7 6 7 6 7 10 10 9 8 8 5 5 7 9 6 7 6 5 4 5 5 5 4 3 5 3 1 2 0 3 4 2 0 2
5 8 7 8 9 8 7 5 7 9 8 7 7 8 9 8 10 11 10 9 9 10 10 10 9 8 8 9 10 7 7 6 5 7 7 7 7 5 5 4 3 4 3 4 5 4 6 7 7 8 8 8 7 8 8 8 7 8 8 8 8 8 4 6 8 7 6 6 4 6 4 2 4 3 4 5 4 2 2 1 2 1 2 4 1
4 5 5 5 4 4 5 8 7 6 6 8 9 10 9 10 11 12 11 9 10 11 11 11 8 8 9 10 10 12 11 10 9 6 6 6 6 6 6 5 4 5 5 3 4 4 5 5 7 7 7 7 8 8 9 9 8 8 7 8 8 10 7 8 7 5 6 5 4 6 6 6 6 3 5 2 3 1 2 0 2 4 2 4 3
3 4 5 3 3 4 5 7 8 8 7 9 9 10 10 10 10 12 10 11 11 10 10 11 9 8 6 9 11 11 13 10 10 12 9 9 8 7 4 4 4 3 4 5 5 4 5 5 5 6 7 7 7 6 7 8 8 8 8 7 7 7 7 8 7 8 6 5 3 4 5 5 5 6 5 6 6 4 4 2 3 1 2 4 5
4 4 4 4 6 7 8 7 8 10 11 11 11 10 10 11 12 13 12 11 12 11 11 11 10 10 9 8 7 9 11 12 11 11 10 10 8 7 7 7 5 6 6 7 6 7 6 7 7 7 7 6 7 7 7 8 8 8 8 8 8 8 7 8 8 7 8 8 6 2 5 5 5 5 6 6 5 6 5 2 0 0 1 3 2
5 5 5 6 7 7 8 9 9 9 10 11 11 11 10 10 11 13 12 10 10 10 11 11 11 10 9 9 9 9 9 10 10 11 10 8 8 10 10 9 9 8 8 8 8 7 5 6 6 6 5 6 6 7 8 7 8 8 8 8 7 5 6 7 8 6 5 6 5 6 4 6 5 5 6 6 6 6 3 3 3 1 1 3 3
5 6 6 7 7 8 9 9 9 10 10 11 10 11 10 11 11 12 11 11 11 12 10 11 10 9 7 7 8 9 9 9 9 9 11 10 8 9 9 8 9 8 9 7 7 7 6 5 5 7 7 7 6 7 7 7 7 8 7 8 6 5 6 7 6 7 8 6 5 6 5 5 5 4 5 5 5 5 6 5 5 1 1 0 2
4 5 6 6 7 7 7 8 9 9 11 10 11 11 12 12 12 12 12 12 11 11 10 10 9 8 8 9 9 9 7 6 6 6 7 9 12 11 10 9 8 8 6 6 6 6 6 6 5 6 6 6 6 7 8 8 7 9 7 7 7 3 7 8 6 7 7 7 6 4 6 4 3 4 4 5 4 5 5 5 5 4 4 2 1
4 7 7 6 5 7 8 8 8 9 10 13 13 13 14 13 13 13 12 11 12 11 11 10 9 9 9 9 9 9 9 10 9 10 10 8 8 8 9 9 6 7 7 5 7 5 5 6 7 6 6 6 6 6 7 8 7 8 8 7 7 4 7 7 6 8 6 7 6 4 5 5 3 3 3 4 4 3 4 5 5 5 4 3 1
6 6 5 5 6 7 7 7 9 10 11 11 12 11 11 12 13 14 13 14 12 12 12 10 10 10 9 10 10 10 10 10 9 10 9 8 7 6 6 8 8 7 7 6 6 7 6 6 7 7 6 6 7 7 7 8 8 7 7 6 6 6 7 5 5 7 7 6 6 5 4 5 2 3 4 3 3 4 5 5 4 3 4 5 4
4 6 5 6 7 8 9 9 8 9 9 10 9 9 8 9 10 12 14 13 13 11 9 7 8 7 8 10 11 10 8 8 8 8 9 10 10 8 8 8 7 7 8 8 7 7 7 6 7 8 7 7 6 7 7 8 8 8 7 7 5 6 8 7 5 7 6 7 6 6 4 5 3 3 3 2 2 4 5 5 4 4 3 3 5
5 4 5 6 6 7 8 9 10 10 9 9 9 8 10 10 10 10 7 8 9 11 10 10 9 8 8 7 8 9 10 11 9 9 9 9 10 10 9 8 9 8 7 8 8 8 9 9 7 8 8 7 7 7 7 8 7 8 8 8 6 6 8 8 6 5 6 6 7 6 5 5 3 3 3 3 3 3 4 5 4 5 3 3 4
4 5 6 7 6 6 6 6 6 5 5 6 8 11 11 8 9 10 12 12 13 12 11 10 9 9 9 10 9 8 9 8 9 9 10 9 8 8 8 8 8 8 9 9 9 9 8 8 8 8 9 9 9 8 6 7 7 8 6 7 6 7 9 6 7 6 4 6 6 6 5 4 4 4 5 4 4 4 3 4 4 4 5 3 6
5 5 5 5 5 5 5 5 5 6 7 9 8 8 9 10 9 9 9 10 11 11 11 10 9 9 11 10 10 7 8 7 9 9 9 8 8 8 8 8 10 9 9 9 9 7 7 8 8 8 7 7 7 8 7 7 8 8 7 5 7 7 8 7 7 7 6 5 5 6 5 5 4 5 4 5 5 5 4 4 4 5 5 6 5
5 5 5 5 5 6 7 8 9 10 9 9 8 9 10 10 9 9 10 10 10 10 10 10 10 10 10 9 9 9 9 8 9 9 9 9 8 7 6 9 9 8 6 7 8 8 8 7 7 7 6 6 7 7 6 7 8 9 9 7 7 8 9 9 8 8 7 6 5 5 6 5 4 4 5 5 4 5 4 5 5 4 5 5 5
4 3 4 4 4 4 5 7 9 9 9 10 10 9 9 9 10 9 11 10 9 9 10 10 9 9 9 9 10 9 10 9 10 9 10 8 8 6 6 7 7 7 8 5 5 6 7 8 8 7 6 6 6 6 6 6 8 8 9 9 8 7 7 7 8 8 8 7 7 6 6 6 5 6 5 5 4 4 5 5 5 5 5 6 5
2 4 4 3 4 7 9 9 9 9 8 9 10 10 10 11 10 11 10 9 9 8 10 11 11 11 10 10 10 10 11 11 10 9 10 8 8 7 6 7 7 7 6 6 5 4 6 7 8 8 7 7 7 7 7 6 5 5 6 7 7 7 6 6 7 8 7 8 7 8 7 7 6 7 5 5 5 5 5 5 6 5 6 5 4
3 4 3 7 9 8 7 8 8 9 10 9 10 10 11 11 12 10 10 9 9 8 10 11 11 11 11 12 12 11 12 12 11 10 11 10 9 8 8 6 7 8 7 6 7 6 6 7 6 7 7 7 6 6 6 6 5 5 5 5 6 6 6 6 6 6 7 7 8 7 7 8 8 9 8 6 6 6 5 6 6 6 5 4 5
5 6 6 5 6 10 10 9 9 8 9 9 10 11 11 11 11 11 10 10 10 10 11 11 11 12 12 13 13 13 12 12 11 11 10 10 10 9 9 9 8 8 8 8 7 7 6 6 6 6 6 6 6 6 6 6 5 5 5 6 6 6 5 5 5 6 6 6 6 6 7 8 9 9 8 8 8 6 7 7 7 7 5 5 6
3 4 7 10 11 8 9 10 9 9 9 9 10 11 12 12 13 11 10 10 9 10 11 11 11 12 13 13 12 11 11 11 10 10 11 11 10 10 10 8 8 9 9 9 9 9 7 5 6 6 5 5 6 5 5 5 5 6 6 6 6 6 6 5 5 5 5 6 6 6 7 8 9 8 8 7 7 8 6 6 6 5 5 6 6
5 9 8 10 11 10 9 8 10 9 11 12 10 11 10 9 9 9 10 11 10 10 11 12 12 13 13 11 10 10 9 10 10 10 10 10 10 9 9 8 8 8 7 8 7 8 8 7 6 6 5 5 6 6 6 7 7 6 6 6 6 6 6 6 5 5 5 5 6 6 7 7 8 8 11 9 9 8 7 7 6 6 6 6 5
10 10 11 10 11 7 7 8 9 12 12 12 12 12 12 12 12 10 11 9 10 11 12 11 12 12 9 9 10 9 10 9 9 10 9 9 9 9 9 9 9 8 8 7 7 7 7 8 8 7 6 6 6 5 6 10 8 7 7 6 5 6 6 6 6 5 5 6 7 6 6 9 10 11 11 13 13 13 12 9 7 7 7 7 6
11 9 10 9 7 7 7 10 12 13 15 14 13 11 10 11 10 10 11 10 10 11 11 11 11 8 8 8 9 9 9 9 9 8 7 9 9 9 9 9 9 8 8 8 8 8 8 7 7 7 7 6 6 5 9 11 12 11 6 6 7 7 6 6 6 7 8 8 7 7 6 8 8 9 10 15 15 15 15 16 14 13 11 10 8
12 12 9 7 8 8 10 13 14 13 12 12 12 11 9 12 10 10 9 8 10 11 11 11 9 8 8 10 9 9 10 9 9 8 8 8 8 8 9 8 8 8 7 7 8 9 7 7 6 6 7 6 6 6 11 12 13 13 11 8 6 6 6 7 7 7 7 7 8 7 7 6 7 8 7 8 11 15 16 17 17 16 16 17 14
13 12 10 9 9 11 11 12 10 11 12 14 10 9 13 11 10 9 8 10 11 10 10 10 8 8 8 8 9 10 10 9 9 9 8 9 9 9 9 9 9 8 7 8 9 9 9 7 8 8 7 6 6 8 12 13 14 15 15 11 5 7 6 7 8 8 8 8 7 7 7 7 7 10 8 7 7 7 12 16 17 18 18 18 17
9 8 9 10 7 8 9 10 10 9 8 6 9 11 8 7 9 8 11 11 11 10 10 9 8 8 9 9 9 10 10 10 9 9 9 9 9 10 9 8 8 8 9 8 8 9 8 8 8 8 7 6 6 8 13 14 15 16 16 13 6 7 6 7 8 8 8 9 9 8 8 8 8 7 7 8 7 7 7 7 8 7 7 11 16
9 9 10 9 10 8 7 6 6 4 4 7 7 8 7 8 9 10 10 10 10 10 9 9 9 8 9 9 11 11 11 10 9 9 10 10 11 9 10 9 9 10 11 10 10 9 8 7 6 6 7 7 7 11 14 15 16 17 17 13 6 6 6 6 7 7 9 9 9 8 8 9 8 7 8 9 8 8 6 7 7 8 9 7 7
8 8 8 6 7 8 8 8 4 6 6 8 9 8 9 8 8 9 9 9 9 9 9 8 9 9 10 10 11 10 9 9 9 8 9 9 9 10 10 7 7 6 5 5 5 6 8 8 7 7 7 9 8 13 15 16 17 17 18 10 6 7 7 7 8 9 10 9 7 8 9 10 9 7 9 14 12 6 6 7 9 9 8 8 8
5 3 6 5 6 6 7 4 4 5 6 6 6 8 8 8 8 7 8 8 9 9 9 8 9 9 10 10 10 10 9 8 9 9 9 8 8 8 7 6 7 7 7 7 7 7 6 7 8 8 9 9 7 11 16 17 17 19 13 8 7 7 7 8 10 10 9 8 8 9 9 9 8 8 9 13 14 11 7 8 9 9 9 7 10
6 5 4 4 3 1 0 3 4 4 5 6 7 9 9 8 8 7 8 7 8 8 7 8 8 8 9 9 9 9 10 9 9 10 9 7 5 4 6 6 7 6 6 5 5 5 4 6 8 9 10 10 8 8 14 16 17 18 13 9 7 7 8 8 9 9 7 7 9 12 10 9 9 9 9 13 13 10 7 9 8 10 10 10 11
3 4 5 2 1 2 4 5 6 6 5 7 8 10 9 8 7 7 7 8 8 7 8 8 7 6 6 7 8 9 9 9 9 9 9 9 9 8 6 6 6 6 6 5 5 5 5 5 7 8 7 8 6 6 13 15 16 16 12 7 7 6 8 9 8 9 7 7 8 9 14 12 10 11 12 12 14 11 8 8 9 7 11 12 13
3 3 1 2 2 5 5 5 6 5 6 8 8 9 8 8 7 7 7 8 7 6 5 5 6 7 7 7 7 9 8 9 8 6 6 7 6 7 7 7 5 5 5 5 5 6 8 7 5 5 6 7 7 6 6 13 14 14 15 9 6 6 10 11 9 9 9 8 7 7 9 14 18 17 16 16 15 16 10 9 7 9 10 16 7
2 2 3 5 5 5 5 4 5 7 7 7 8 9 8 7 8 7 7 6 5 6 7 7 7 7 7 7 6 8 9 7 8 8 7 7 6 7 7 6 6 5 5 5 6 6 6 6 5 6 6 6 6 6 6 11 13 14 16 14 7 9 9 8 9 9 9 9 8 7 6 10 15 16 17 19 20 19 18 11 10 11 13 12 3
2 3 5 6 6 7 7 6 4 7 7 8 8 9 8 8 7 6 5 6 7 7 8 8 9 8 8 8 8 6 7 8 7 8 8 6 5 6 7 7 6 6 7 7 6 6 6 5 4 5 5 6 5 7 5 9 14 15 15 17 10 9 8 7 9 10 9 8 9 6 6 7 13 17 17 18 20 20 22 14 14 20 22 21 14
4 4 3 7 8 7 6 6 5 5 6 6 9 9 7 7 8 6 6 7 8 8 8 9 8 8 8 8 8 9 8 7 7 8 8 8 6 6 6 6 7 6 7 7 7 6 5 5 5 5 4 5 4 4 7 6 9 13 14 15 16 11 10 7 8 11 11 9 7 6 6 11 15 17 18 19 20 23 19 15 23 24 25 25 19
3 4 5 8 9 7 7 5 4 4 5 6 9 9 7 7 6 5 7 7 7 8 8 8 8 8 8 8 8 8 7 7 8 7 7 7 7 7 6 6 6 6 6 6 5 5 5 5 6 6 4 3 3 4 6 8 6 11 12 14 15 16 16 7 7 9 9 8 8 7 6 12 16 18 19 20 21 21 15 20 23 24 24 21 13
6 5 4 5 10 9 8 7 5 5 4 4 5 9 8 8 5 6 7 8 8 8 8 8 8 8 8 7 6 6 6 6 6 8 8 7 6 7 6 4 6 6 6 6 6 5 6 6 4 5 3 3 4 4 4 6 11 12 14 15 16 17 17 18 12 10 7 7 9 12 14 16 16 18 21 22 20 21 25 23 24 23 20 10 9
5 5 5 7 8 8 9 9 7 5 5 4 4 5 8 5 4 5 5 7 8 8 8 8 7 6 6 7 7 5 5 5 6 5 6 6 8 7 6 6 5 5 5 5 4 4 4 4 5 3 3 3 2 3 4 3 5 7 8 12 15 16 16 17 16 13 16 18 19 19 19 19 18 16 12 9 9 9 16 21 22 21 11 9 7
5 4 7 8 9 10 9 8 8 5 6 6 6 7 5 5 5 5 6 6 7 7 6 6 6 6 5 6 7 6 6 5 5 4 4 5 5 5 5 5 5 5 4 4 4 5 4 4 6 5 3 3 3 3 3 3 3 4 4 4 5 6 8 10 8 7 9 8 9 8 8 12 12 17 18 17 16 14 12 11 9 7 7 7 7
4 4 5 7 8 10 9 9 8 6 6 7 7 7 6 6 5 4 6 7 7 7 7 7 7 6 6 6 6 7 7 5 4 4 5 5 4 5 5 6 6 6 6 5 6 5 6 6 5 4 3 2 4 3 4 5 5 5 5 4 3 3 4 4 6 7 6 6 6 7 9 6 6 7 7 6 6 5 6 6 6 6 7 7 9
7 5 5 8 8 10 9 10 8 6 7 8 8 7 6 6 4 3 6 8 8 7 7 7 6 6 6 5 6 6 6 6 6 6 5 3 5 5 6 3 1 3 6 6 6 5 5 3 5 4 5 5 3 4 6 6 7 8 7 5 4 6 5 4 8 11 7 4 3 4 4 4 4 5 6 6 6 6 6 5 4 4 4 4 3
5 6 8 9 8 11 11 10 7 6 6 8 8 6 5 6 4 2 6 9 8 8 8 6 6 6 6 6 6 6 6 6 7 7 7 6 6 7 4 5 1 1 3 3 5 4 4 4 4 3 3 5 5 5 5 5 6 8 10 11 12 11 10 8 9 13 9 5 5 4 4 4 5 5 6 6 6 5 6 5 5 6 5 5 5
7 10 9 10 9 10 12 12 8 6 8 7 7 5 5 5 4 3 5 8 9 8 7 6 6 6 6 6 6 6 5 6 6 7 7 7 7 7 9 8 7 6 5 4 5 5 7 7 6 2 3 6 6 4 3 4 5 5 7 7 8 8 10 13 15 10 7 6 5 6 5 4 5 5 6 7 6 6 6 6 6 5 5 6 6
Wind_Direction
260 198 197 195 189 185 182 178 182 183 185 183 176 183 186 180 166 173 162 150 152 144 141 150 136 121 91 97 125 107 79 72 77 62 103 85 70 87 86 87 102 111 118 123 118 109 100 95 112 111 112 109 113 120 126 121 119 119 112 113 120 111 91 97 96 103 111 71 56 63 53 37 51 53 52 42 37 27 29 50 36 48 38 39 25
243 234 218 189 190 184 182 187 177 182 197 184 184 184 184 178 181 170 165 163 167 157 156 165 185 173 153 154 132 131 139 126 104 21 66 81 71 86 82 77 104 115 125 120 121 131 128 125 121 115 114 103 101 113 115 121 123 122 120 89 51 120 121 73 114 77 54 137 131 90 37 26 66 57 51 34 29 24 27 47 42 50 43 31 23
228 233 199 202 194 193 189 194 198 194 178 188 184 175 184 184 186 170 174 167 168 162 164 165 132 91 123 135 135 110 40 57 77 69 54 96 77 56 72 79 100 102 120 118 127 129 129 129 121 115 116 123 121 118 125 127 135 138 138 131 116 42 97 48 27 52 132 121 108 95 153 72 302 12 11 36 23 21 24 46 46 52 41 30 31
240 221 213 199 199 197 200 204 200 188 184 185 186 184 183 188 184 175 174 168 165 165 137 90 91 91 81 101 89 71 129 104 99 94 75 78 67 54 43 70 84 102 117 122 117 119 129 126 121 118 125 138 133 133 136 135 137 129 129 133 131 127 110 51 27 28 132 138 126 133 189 121 51 256 59 290 63 22 40 27 39 54 43 35 42
242 225 208 196 199 205 203 202 181 193 192 189 186 185 185 185 179 174 169 172 164 148 133 122 112 84 89 84 92 94 78 98 107 60 42 57 83 65 26 23 98 113 109 118 127 127 124 124 122 123 125 132 134 134 143 148 148 146 145 141 151 143 138 125 30 36 58 26 143 112 67 117 205 204 111 204 11 29 9 8 26 37 43 46 52
230 227 210 203 207 207 205 193 194 198 197 194 187 182 174 175 174 173 170 170 156 149 145 143 141 135 138 136 141 136 137 149 157 155 160 145 136 123 51 16 112 116 115 116 120 128 127 125 125 128 127 130 134 131 132 127 138 144 160 141 122 117 135 121 103 41 77 58 61 125 162 168 170 208 110 224 325 138 308 304 348 42 60 66 60
240 243 213 203 212 205 207 203 202 201 203 178 176 177 170 170 177 174 174 165 155 152 156 152 153 160 164 164 161 164 158 184 120 130 134 97 96 107 91 26 81 129 116 121 124 125 123 123 125 125 128 129 134 130 136 144 145 143 142 126 136 132 128 123 137 158 126 50 46 71 71 58 124 136 189 100 88 317 356 337 326 2 63 77 62
226 229 222 216 207 203 206 205 200 203 175 172 174 171 177 177 176 175 167 163 160 158 162 168 162 169 170 172 178 173 165 161 166 150 121 112 110 116 109 66 74 110 127 121 128 129 126 121 125 127 129 138 140 137 139 143 125 106 116 123 126 136 140 137 149 169 134 120 39 73 72 65 58 76 93 144 150 150 276 320 287 334 17 43 58
216 223 221 213 210 211 209 200 198 173 175 182 182 176 175 171 172 170 166 162 167 169 167 176 178 172 168 158 163 117 93 124 126 128 131 121 123 128 116 111 108 94 108 125 129 132 132 134 133 132 134 140 133 128 139 147 141 137 133 131 130 117 131 135 133 167 138 152 127 69 73 69 69 77 89 70 120 110 288 266 301 328 344 67 50
231 231 225 221 218 214 199 173 169 186 181 178 168 163 172 172 173 172 173 169 169 174 173 175 178 175 168 169 160 140 112 95 121 135 137 120 139 146 141 145 141 126 115 119 125 132 135 135 138 141 140 139 143 144 142 135 135 133 136 132 128 118 112 131 136 147 137 143 138 149 111 69 52 31 37 73 51 82 177 204 211 304 333 292 313
246 244 242 236 222 189 162 180 179 172 177 175 170 171 173 176 176 178 177 170 173 177 175 178 178 182 176 170 162 152 150 146 139 131 124 135 153 156 158 141 151 145 137 130 131 140 138 141 141 142 138 140 143 148 150 141 137 127 125 119 124 128 132 116 106 110 121 118 125 136 152 154 163 161 182 163 134 139 76 249 266 214 220 300 289
253 241 247 213 162 165 166 177 172 176 174 183 178 174 175 178 175 178 178 178 177 177 177 177 176 183 183 172 167 162 156 160 161 155 163 160 165 159 148 139 148 145 142 143 150 155 146 141 138 138 141 145 151 148 137 132 128 124 122 121 118 115 121 119 123 122 117 108 109 123 131 133 123 133 161 146 141 174 143 171 191 246 273 235 293
240 236 221 205 195 183 186 181 172 181 186 185 182 182 179 180 181 181 185 181 178 175 181 179 178 182 178 172 168 163 167 164 162 163 164 164 164 156 159 165 158 161 181 168 174 168 156 147 151 149 149 153 145 137 131 128 127 122 123 122 129 135 140 134 133 143 142 140 143 129 126 118 120 126 125 128 96 121 127 127 229 207 218 297 306
241 228 221 212 201 195 190 184 185 185 186 186 182 183 185 184 186 188 186 179 176 179 182 181 184 181 177 173 167 165 173 168 166 163 169 169 169 168 170 171 175 183 175 185 170 166 169 165 155 144 137 141 142 133 129 125 125 124 125 123 122 119 115 116 118 118 105 111 124 118 106 115 127 136 133 122 134 117 119 151 161 10 128 270 297
235 233 221 212 206 194 190 189 188 187 186 187 185 185 181 187 187 192 182 184 182 185 183 185 183 178 175 170 166 170 171 172 170 172 166 164 173 174 176 169 173 177 182 174 164 168 164 153 150 142 144 143 140 130 123 119 116 111 106 110 106 117 117 116 116 121 115 109 89 107 112 101 125 133 122 124 131 140 146 164 139 153 343 107 295
223 234 229 222 205 196 192 193 191 187 188 190 189 186 186 189 187 192 188 182 186 184 187 184 183 175 172 171 172 170 169 170 159 165 175 173 171 175 176 175 176 165 167 156 166 161 159 154 149 145 142 142 141 133 130 126 126 116 114 117 115 131 120 110 117 107 106 103 105 105 101 106 106 110 105 127 130 138 129 137 126 136 149 288 343
232 231 225 214 205 204 199 194 190 188 191 195 195 190 189 185 186 188 185 181 186 188 185 183 178 174 179 175 169 170 171 173 172 176 177 176 177 176 170 172 158 156 157 157 157 157 154 156 148 145 146 143 135 134 129 126 125 121 127 129 124 129 114 118 122 111 112 112 106 109 119 124 108 96 92 108 123 118 127 142 145 153 158 138 224
230 236 231 213 206 202 200 199 196 195 194 196 198 195 192 190 188 187 184 183 186 184 186 183 177 179 176 178 175 176 176 180 177 175 170 165 173 173 157 155 168 161 156 157 156 154 157 158 149 147 147 147 141 136 132 129 123 119 125 123 131 131 115 108 114 119 122 115 112 107 120 118 116 106 119 124 131 138 136 146 146 134 142 168 180
240 235 228 217 206 205 200 200 200 197 196 197 195 193 195 194 192 193 191 186 182 181 181 179 177 175 176 179 176 177 181 180 176 170 167 171 173 171 176 166 144 150 154 158 156 159 160 162 158 151 153 150 144 140 137 131 130 126 130 130 140 135 124 122 128 124 131 124 129 129 124 121 121 119 119 127 131 135 141 136 134 129 157 159 164
241 238 235 224 217 206 201 196 196 196 193 192 190 191 200 196 191 195 186 172 172 179 177 179 178 170 177 178 185 182 177 175 172 168 174 179 176 171 172 164 163 156 162 158 162 168 168 164 165 157 154 153 148 144 142 135 131 134 140 138 152 139 128 131 132 123 130 134 138 138 142 141 141 134 153 161 152 141 138 134 138 143 154 163 153
237 232 229 220 212 207 204 205 202 195 194 186 190 196 198 194 197 191 185 182 184 183 177 181 168 179 173 181 180 178 182 176 167 173 174 177 176 173 177 169 145 167 163 168 172 172 170 166 160 164 160 160 153 148 143 137 134 137 139 141 146 143 133 133 132 128 130 141 145 142 148 150 148 168 180 171 156 146 128 131 136 140 164 174 171
231 232 227 223 213 200 199 195 189 183 192 194 195 193 196 199 199 193 191 192 185 181 182 172 177 178 182 180 180 178 175 169 168 170 177 174 173 177 175 160 172 170 169 170 170 167 166 165 163 164 163 154 149 145 145 142 143 141 142 149 150 144 137 139 141 145 149 151 145 145 154 156 176 182 184 181 167 152 153 146 164 166 185 188 199
222 223 223 221 205 198 196 195 194 196 195 192 193 197 198 197 195 197 193 197 187 185 177 174 178 181 183 178 173 175 167 174 173 173 177 174 175 177 174 172 170 165 166 171 169 165 166 162 159 157 155 155 154 149 151 149 152 153 153 159 159 152 150 153 158 161 156 147 145 155 166 163 164 184 201 194 169 169 168 169 182 184 188 198 199
240 233 229 212 192 187 191 201 201 201 197 196 196 196 197 200 199 194 201 190 184 181 176 173 179 182 175 171 177 171 171 175 179 178 177 175 171 171 170 173 164 153 162 164 163 164 159 164 160 160 160 152 150 152 155 163 161 161 160 161 160 157 156 164 164 159 158 161 163 160 177 170 170 187 202 195 191 175 176 184 187 194 192 200 202
252 244 225 209 195 198 206 203 203 204 202 197 198 197 195 199 197 199 200 189 182 177 178 178 177 177 176 179 179 174 177 180 181 177 179 169 168 163 168 171 154 157 159 152 159 164 166 167 168 164 159 161 164 161 161 162 162 161 164 161 162 158 162 171 171 165 165 166 167 180 176 171 172 186 203 203 195 194 196 189 198 197 196 205 201
220 226 219 219 215 213 215 209 206 206 201 200 202 200 201 200 201 196 193 186 185 173 181 177 177 179 181 184 182 179 184 182 179 179 177 171 166 165 166 164 161 158 156 164 163 167 174 174 168 167 164 161 158 159 161 162 160 157 157 162 159 161 167 172 169 169 171 175 175 181 180 177 179 188 202 200 195 201 196 205 206 206 199 193 205
218 212 220 235 233 224 219 211 207 206 203 202 202 202 203 203 202 196 193 186 183 177 179 182 182 183 183 189 186 185 181 181 183 180 174 170 169 165 164 167 165 161 162 165 167 169 176 174 168 162 164 160 157 160 163 161 160 162 163 162 164 165 169 172 175 175 178 179 182 184 184 186 190 197 195 196 195 200 200 214 209 205 198 189 209
241 229 220 223 229 227 220 213 208 210 205 210 208 206 202 201 202 194 189 185 184 181 181 185 184 188 191 190 186 181 182 183 182 177 177 173 168 166 169 163 159 164 168 173 173 175 169 164 166 168 163 156 160 160 160 156 162 170 171 170 172 174 173 178 174 182 184 189 193 196 195 196 198 200 197 199 186 198 197 216 215 196 197 196 210
233 243 234 230 230 225 217 211 211 204 209 209 208 208 206 207 204 195 189 193 179 178 186 188 189 194 194 184 176 179 183 180 179 177 175 172 166 161 159 159 162 165 170 172 169 165 160 164 164 163 158 160 168 175 171 172 170 178 180 177 177 180 179 180 181 185 192 199 205 206 207 205 206 206 206 199 201 194 181 208 218 190 201 201 206
259 245 238 234 236 228 215 207 209 210 210 208 208 208 204 201 201 193 190 189 172 187 188 191 196 198 188 176 175 176 179 176 174 178 173 161 160 159 160 163 171 173 166 160 159 160 165 172 166 167 167 165 180 181 182 181 183 179 179 178 175 182 185 185 184 188 202 212 215 212 217 211 208 209 211 213 213 211 207 203 199 190 197 198 202
261 259 247 237 229 223 213 211 216 211 211 208 209 206 199 203 201 191 190 184 176 185 193 192 196 188 179 168 172 179 171 174 174 163 159 162 163 163 164 167 169 167 163 159 156 164 174 171 172 172 172 182 184 181 179 189 190 187 177 183 185 189 188 190 192 194 206 212 218 218 220 220 216 216 217 221 224 224 226 224 218 206 199 190 191
257 257 256 244 225 219 216 219 219 215 210 206 207 199 191 206 193 190 185 169 180 188 191 194 189 178 174 173 174 168 168 170 165 168 164 163 159 162 168 169 166 162 160 155 166 176 168 168 169 173 185 185 184 176 188 195 196 193 188 191 193 191 190 197 198 203 213 212 216 217 222 217 221 219 213 223 229 231 231 232 230 224 217 214 202
249 252 256 250 238 229 225 228 224 216 208 211 194 181 202 196 183 185 159 175 185 187 188 188 182 174 171 167 166 166 168 167 171 167 162 160 164 166 167 167 171 168 155 165 175 168 175 170 172 181 186 183 187 185 193 199 202 204 201 192 199 197 194 203 203 207 212 215 211 215 224 226 227 223 218 217 221 237 242 241 238 237 234 229 227
258 256 256 259 254 247 234 230 227 220 211 193 184 193 189 171 170 161 172 178 179 184 182 182 171 171 165 164 166 167 169 169 166 165 162 164 165 172 171 168 158 157 168 171 174 177 171 176 178 180 184 182 190 190 199 204 207 209 209 199 200 201 206 207 207 210 215 216 211 207 217 230 226 216 217 215 219 225 229 246 251 249 245 245 242
251 257 252 246 250 256 257 251 240 207 173 163 181 177 154 159 165 168 174 171 178 175 178 175 172 167 162 165 168 172 169 163 166 163 163 167 170 168 168 169 170 174 174 177 176 175 178 171 171 176 181 192 200 197 203 208 212 213 214 210 194 200 210 215 216 217 223 223 215 212 219 231 227 212 212 209 214 219 218 230 237 245 247 242 244
238 243 260 256 254 250 249 249 196 170 177 177 178 160 156 163 156 162 164 168 168 174 175 168 169 165 167 170 167 165 164 165 161 159 164 170 173 172 169 161 159 160 151 147 159 164 173 174 177 181 189 206 208 199 205 211 214 215 215 214 196 198 211 218 222 224 226 226 216 216 223 233 234 225 218 218 218 201 213 223 233 244 248 248 247
281 236 256 243 243 238 240 204 165 172 162 167 145 145 142 141 151 156 156 160 165 173 175 171 167 166 167 166 164 161 159 148 155 161 169 169 169 167 163 154 159 164 168 175 173 179 175 174 186 192 199 212 209 202 206 211 214 216 212 215 201 201 213 218 228 228 230 225 220 219 225 233 236 236 224 222 223 207 208 221 231 241 245 250 253
284 282 264 275 298 302 5 144 136 129 136 132 138 138 136 141 145 145 150 156 165 175 169 166 166 165 164 162 160 152 151 159 161 168 169 162 145 135 146 149 156 155 164 173 177 176 174 185 195 203 205 210 214 200 208 214 216 216 213 214 208 205 220 224 236 237 228 230 227 223 223 231 235 242 229 227 225 219 218 222 223 238 249 251 255
286 283 295 334 48 105 110 106 117 122 131 132 132 131 132 137 141 146 150 158 173 171 169 172 164 154 148 146 145 147 152 157 164 168 163 160 164 162 152 151 159 164 173 162 165 176 193 200 207 212 210 214 223 204 210 218 219 219 217 217 209 210 225 234 235 245 234 225 237 230 228 229 233 242 240 233 229 223 227 231 225 227 245 250 252
355 8 47 101 93 92 85 101 113 124 125 125 127 126 129 134 140 144 155 170 174 159 141 126 130 141 143 146 150 150 155 159 158 146 148 154 143 140 154 159 159 162 161 164 176 189 201 212 199 206 212 213 217 218 210 221 222 224 221 218 213 207 231 237 236 241 249 240 231 236 237 238 240 243 241 239 236 233 228 235 226 227 241 252 243
41 58 82 76 64 80 95 104 117 125 125 125 124 121 126 134 142 152 170 159 142 130 133 133 131 134 138 142 146 152 153 156 154 155 152 146 153 154 147 154 161 161 165 175 188 196 207 215 199 206 207 217 208 216 213 217 226 226 227 224 222 226 232 241 244 246 243 249 247 233 231 231 240 247 249 249 248 245 243 237 230 230 232 246 224
74 86 96 92 84 86 88 82 99 122 126 127 124 122 130 139 146 156 155 141 134 134 133 135 140 144 148 149 151 150 149 149 144 139 145 149 153 153 161 166 166 169 181 190 191 199 206 216 206 204 208 215 209 207 211 220 224 229 230 230 231 237 227 231 249 252 250 248 248 238 231 218 229 239 244 247 250 251 251 249 241 242 246 245 244
105 84 79 109 98 92 96 109 116 122 129 131 125 127 136 141 147 161 149 140 138 138 138 139 141 145 151 152 151 152 148 148 151 154 156 163 161 161 161 163 166 169 181 189 195 195 200 215 218 220 214 216 215 215 219 218 232 238 240 241 244 248 238 213 228 249 252 255 251 233 222 221 231 234 238 241 243 246 250 250 253 257 259 257 253
85 112 125 110 105 106 103 98 103 114 125 131 131 132 138 141 153 150 136 133 135 137 136 139 145 149 149 153 157 156 151 151 154 155 158 156 162 165 161 168 166 169 175 187 197 189 200 217 225 233 217 208 194 188 227 230 227 238 245 248 251 253 255 240 219 242 254 255 253 244 231 229 236 238 240 242 248 252 249 252 259 263 266 267 265
126 120 115 109 120 119 109 90 80 86 85 100 125 132 135 135 149 137 139 138 138 137 140 145 148 151 153 149 145 147 150 154 155 156 156 153 150 150 152 158 159 171 177 190 200 188 204 219 227 238 227 193 186 188 209 227 231 230 235 238 243 246 248 251 254 255 247 239 248 255 258 256 250 250 253 256 256 260 264 266 267 267 267 264 263
101 98 101 109 104 99 100 97 70 58 64 69 80 115 126 130 122 123 126 132 136 139 143 146 140 137 137 135 137 138 141 146 150 157 157 157 158 165 163 160 165 177 183 188 193 176 206 213 231 236 226 208 174 177 209 233 243 243 244 246 247 249 252 254 257 263 267 273 273 275 278 279 278 274 266 253 254 252 257 261 263 265 260 258 264
114 122 122 113 112 103 98 93 82 47 58 52 64 54 72 97 104 113 117 120 121 119 114 108 114 111 117 133 137 144 137 130 136 122 118 129 134 146 143 149 162 168 167 179 177 181 196 204 225 226 211 191 195 196 211 227 246 240 249 261 270 281 285 281 281 293 300 299 305 308 303 296 294 289 284 274 266 258 256 257 253 248 247 245 246
103 115 106 100 101 109 105 96 83 63 63 64 60 54 42 53 63 86 110 111 112 120 126 127 125 129 129 132 127 123 124 113 99 106 112 103 99 130 146 159 173 173 174 189 185 198 202 209 221 208 195 205 227 221 220 219 224 214 232 236 248 267 265 266 274 276 275 283 293 301 307 316 307 300 289 289 285 278 260 254 249 242 240 241 243
120 115 110 112 118 106 104 98 91 81 82 76 67 55 36 41 41 73 118 112 111 108 108 107 109 107 99 90 104 106 115 115 104 79 53 87 132 131 132 94 51 164 173 174 189 202 206 208 187 185 190 223 219 223 238 210 206 200 196 195 220 230 232 233 237 248 258 265 282 301 309 313 310 296 301 291 285 277 270 260 264 273 275 277 272
96 106 107 106 106 113 110 101 87 84 77 73 68 55 39 17 18 27 111 114 115 106 100 96 98 103 106 103 99 98 106 115 118 115 103 65 74 104 120 136 167 128 169 178 143 176 194 167 167 221 191 192 205 221 236 235 228 226 224 213 211 212 213 214 229 245 245 238 251 259 266 274 281 281 282 285 280 272 273 265 250 243 238 236 231
127 112 107 107 110 108 107 95 85 83 76 78 71 40 36 19 19 12 105 118 116 105 102 102 102 106 116 117 115 106 103 109 117 120 112 108 81 56 74 87 109 117 117 124 138 136 147 152 150 176 247 216 220 248 262 263 272 278 279 288 287 274 259 247 242 240 241 240 233 236 255 247 256 258 258 262 266 271 273 278 270 249 238 237 234